Location: Canazei
(46.4667°N, 11.7667°E)
Time: 17:45:26
(UTC+00:00)

CZ-3B R/B - Pass Details

Date: 21 April 2021
Orbit: 303 x 17371 km, 54.8° (Epoch: 11 May)

Event Time Altitude Azimuth Distance (km) Brightness Sun altitude
Exits shadow 03:24:38 - 238° (WSW) 8,046 7.0 -8.8°
Reaches altitude 10° 03:25:22 10° 238° (WSW) 7,785 6.9 -8.7°
Maximum altitude 03:42:33 77° 326° (NW) 1,209 3.5 -6.1°
Drops below altitude 10° 03:46:40 10° 53° (NE) 2,041 6.4 -5.4°
Sets 03:48:00 0° 56° (NE) 2,639 7.5 -5.2°
